Weather History for Plattsburgh, NY

Change the Weather History Date:

Sunday, January 20, 2013

  Actual Average Record
Temperature  
Mean Temperature 27 °F 16 °F  
Max Temperature 42 °F 27 °F 46 °F (1973)
Min Temperature 12 °F 5 °F -14 °F (1970)
Degree Days  
Heating Degree Days 38 49  
Month to date heating degree days 840 955  
Since 1 July heating degree days 3499 3841  
Moisture  
Dew Point 21 °F    
Average Humidity 57    
Maximum Humidity 69    
Minimum Humidity 44    
Precipitation  
Precipitation 0.04 in - 0.66 in (1986)
Month to date precipitation 0.31  
Year to date precipitation 0.31  
Sea Level Pressure  
Sea Level Pressure 29.62 in    
Wind  
Wind Speed 11 mph (WSW)    
Max Wind Speed 22 mph    
Max Gust Speed 39 mph    
Visibility 7 miles    
Events Fog , Rain , Snow    
T = Trace of Precipitation, MM = Missing Value Source: NWS Daily Summary

Daily Weather History Graph

Daily Weather History Graph

Search for Another Location

Airport:

Trip Planner

Search our weather history database for the weather conditions in past years. The results will help you decide how hot, cold, wet, or windy it might be!

Date:

Astronomy

Jan. 20, 2013 Rise Set
Actual Time 7:24 AM EST 4:46 PM EST
Civil Twilight 6:51 AM EST 5:18 PM EST
Nautical Twilight 6:16 AM EST 5:54 PM EST
Astronomical Twilight 5:41 AM EST 6:29 PM EST
Moon 11:46 AM EST (1/20) 1:52 AM EST (1/20)
Length of Visible Light 10h 26m
Length of Day
9h 22m
Waxing Gibbous, 66% of the Moon is Illuminated
Jan 20
Waxing Gibbous
Jan 26
Full
Feb 3
Last Quarter
Feb 10
New
Feb 17
First Quarter

Hourly Weather History & Observations

Time (EST) Temp. Windchill Dew Point Humidity Pressure Visibility Wind Dir Wind Speed Gust Speed Precip Events Conditions
12:53 AM 37.9 °F 29.2 °F 24.1 °F 57% 29.62 in 10.0 mi South 15.0 mph 19.6 mph N/A   Partly Cloudy
1:53 AM 37.0 °F 29.8 °F 25.0 °F 62% 29.60 in 10.0 mi South 10.4 mph - N/A   Scattered Clouds
2:53 AM 37.9 °F 29.6 °F 26.1 °F 62% 29.57 in 10.0 mi SSE 13.8 mph 21.9 mph N/A   Mostly Cloudy
3:53 AM 37.9 °F 29.6 °F 26.1 °F 62% 29.50 in 10.0 mi South 13.8 mph 21.9 mph N/A   Clear
4:53 AM 37.9 °F 30.0 °F 26.1 °F 62% 29.43 in 10.0 mi South 12.7 mph - N/A   Clear
5:53 AM 36.0 °F 31.1 °F 25.0 °F 64% 29.39 in 10.0 mi South 5.8 mph - N/A   Clear
6:53 AM 37.9 °F 29.6 °F 25.0 °F 60% 29.34 in 10.0 mi SSE 13.8 mph - N/A   Mostly Cloudy
7:53 AM 39.9 °F 36.7 °F 25.0 °F 55% 29.34 in 10.0 mi Variable 4.6 mph 18.4 mph N/A   Overcast
8:29 AM 39.2 °F 31.2 °F 33.8 °F 81% 29.41 in 10.0 mi WSW 13.8 mph 33.4 mph 0.01 in Rain Light Rain
8:53 AM 37.9 °F 30.0 °F 30.0 °F 73% 29.43 in 10.0 mi WSW 12.7 mph 26.5 mph 0.01 in Rain Light Rain
9:53 AM 39.9 °F 33.9 °F 26.1 °F 58% 29.44 in 10.0 mi WSW 9.2 mph 28.8 mph 0.00 in   Mostly Cloudy
10:53 AM 39.0 °F 29.6 °F 25.0 °F 57% 29.47 in 10.0 mi SW 18.4 mph 38.0 mph 0.01 in   Overcast
11:53 AM 39.0 °F 31.0 °F 19.9 °F 46% 29.49 in 10.0 mi WSW 13.8 mph 27.6 mph 0.00 in   Mostly Cloudy
12:29 PM 33.8 °F 22.8 °F 24.8 °F 70% 29.52 in 1.8 mi WSW 18.4 mph 35.7 mph 0.00 in Snow Light Snow
12:32 PM 32.0 °F 23.0 °F 24.8 °F 75% 29.53 in 0.8 mi West 11.5 mph 35.7 mph 0.00 in Snow Light Snow
12:35 PM 32.0 °F 23.0 °F 26.6 °F 80% 29.53 in 0.5 mi West 11.5 mph 35.7 mph 0.00 in Snow Snow
12:53 PM 32.0 °F 25.6 °F 28.9 °F 88% 29.55 in 0.5 mi Variable 6.9 mph - 0.00 in Fog , Snow Snow
12:56 PM 32.0 °F 23.0 °F 28.4 °F 87% 29.54 in 1.0 mi West 11.5 mph 18.4 mph 0.00 in Snow Light Snow
1:03 PM 32.0 °F 26.4 °F 26.6 °F 80% 29.54 in 3.0 mi Variable 5.8 mph 18.4 mph 0.00 in Snow Light Snow
1:08 PM 33.8 °F 30.8 °F 24.8 °F 70% 29.54 in 9.0 mi Variable 3.5 mph - 0.00 in   Mostly Cloudy
1:15 PM 33.8 °F 26.4 °F 23.0 °F 65% 29.54 in 10.0 mi SW 9.2 mph 18.4 mph 0.01 in   Overcast
1:53 PM 33.1 °F 23.9 °F 19.0 °F 56% 29.58 in 8.0 mi SW 12.7 mph 32.2 mph 0.02 in Snow Light Snow
1:59 PM 30.2 °F 18.9 °F 23.0 °F 75% 29.58 in 3.0 mi WSW 16.1 mph 33.4 mph 0.00 in Snow Light Snow
2:07 PM 30.2 °F 20.2 °F 23.0 °F 75% 29.59 in 2.5 mi SW 12.7 mph 29.9 mph 0.00 in Snow Light Snow
2:18 PM 30.2 °F 21.3 °F 24.8 °F 80% 29.60 in 3.0 mi SW 10.4 mph 18.4 mph 0.00 in Snow Light Snow
2:26 PM 30.2 °F 18.9 °F 23.0 °F 75% 29.61 in 2.5 mi SW 16.1 mph 25.3 mph 0.00 in Snow Light Snow
2:32 PM 28.4 °F 18.0 °F 23.0 °F 80% 29.61 in 2.0 mi WSW 12.7 mph 28.8 mph 0.00 in Snow Light Snow
2:41 PM 30.2 °F 20.2 °F 23.0 °F 75% 29.62 in 1.8 mi SW 12.7 mph 26.5 mph 0.00 in Snow Light Snow
2:51 PM 30.2 °F 19.8 °F 21.2 °F 69% 29.63 in 2.5 mi West 13.8 mph 27.6 mph 0.00 in Snow Light Snow
2:53 PM 30.9 °F 21.2 °F 19.9 °F 64% 29.64 in 5.0 mi WSW 12.7 mph 27.6 mph 0.00 in Snow Light Snow
3:53 PM 28.9 °F 21.1 °F 19.0 °F 67% 29.70 in 9.0 mi WSW 8.1 mph - 0.00 in Snow Light Snow
4:04 PM 28.4 °F 18.0 °F 19.4 °F 69% 29.70 in 2.0 mi West 12.7 mph 25.3 mph 0.00 in Snow Light Snow
4:11 PM 26.6 °F 16.2 °F 21.2 °F 80% 29.71 in 1.5 mi West 11.5 mph 19.6 mph 0.00 in Snow Light Snow
4:14 PM 26.6 °F 16.8 °F 19.4 °F 74% 29.72 in 2.0 mi WNW 10.4 mph 16.1 mph 0.00 in Snow Light Snow
4:22 PM 26.6 °F 16.8 °F 17.6 °F 69% 29.72 in 5.0 mi West 10.4 mph 26.5 mph 0.00 in Snow Light Snow
4:28 PM 26.6 °F 16.8 °F 17.6 °F 69% 29.72 in 2.5 mi West 10.4 mph 23.0 mph 0.00 in Snow Light Snow
4:37 PM 26.6 °F 18.2 °F 17.6 °F 69% 29.73 in 6.0 mi West 8.1 mph 19.6 mph 0.00 in Snow Light Snow
4:53 PM 27.0 °F 14.3 °F 15.1 °F 61% 29.76 in 10.0 mi West 17.3 mph 26.5 mph 0.00 in   Mostly Cloudy
5:53 PM 24.1 °F 13.7 °F 10.0 °F 55% 29.81 in 10.0 mi West 10.4 mph 21.9 mph N/A   Clear
6:53 PM 21.9 °F 11.0 °F 10.0 °F 60% 29.85 in 10.0 mi WNW 10.4 mph 17.3 mph 0.00 in   Partly Cloudy
7:53 PM 19.9 °F 9.3 °F 6.1 °F 55% 29.89 in 10.0 mi NW 9.2 mph - N/A   Clear
8:53 PM 18.0 °F 8.7 °F 5.0 °F 57% 29.91 in 10.0 mi WNW 6.9 mph 18.4 mph N/A   Clear
9:53 PM 16.0 °F 4.4 °F 3.0 °F 57% 29.94 in 10.0 mi WNW 9.2 mph 18.4 mph N/A   Clear
10:53 PM 14.0 °F 5.1 °F 1.9 °F 59% 29.97 in 10.0 mi NNW 5.8 mph - N/A   Clear
11:53 PM 12.0 °F 1.5 °F 1.9 °F 64% 29.99 in 10.0 mi NNW 6.9 mph - N/A   Mostly Cloudy